EW3139 Weather Reports


time (UTC)temp
F
wind
direction
speed
knots
gust
knots
rain 1hr
in
rain 24hr
in
rain mn
in
humidity
%
barometer
mb
20260507090006 49 176 2.6 7.8 0.00 0.00 0.00 31 1014.0
20260507085504 48 190 2.6 7.8 0.00 0.00 0.00 31 1014.2
20260507085006 48 206 3.5 8.7 0.00 0.00 0.00 30 1014.2
20260507084505 48 189 4.3 8.7 0.00 0.00 0.00 30 1014.3
20260507084006 48 182 4.3 8.7 0.00 0.00 0.00 29 1014.3
20260507083506 48 186 5.2 8.7 0.00 0.00 0.00 29 1014.3
20260507083005 48 194 4.3 10.4 0.00 0.00 0.00 29 1014.3
20260507082505 48 185 4.3 10.4 0.00 0.00 0.00 29 1014.4
20260507082004 48 167 2.6 8.7 0.00 0.00 0.00 29 1014.2
20260507081506 49 164 2.6 8.7 0.00 0.00 0.00 29 1014.3
20260507081004 49 150 2.6 7.8 0.00 0.00 0.00 28 1014.2
20260507080506 48 155 2.6 7.8 0.00 0.00 0.00 29 1014.2
20260507080005 48 160 3.5 9.6 0.00 0.00 0.00 30 1014.2
20260507075506 48 154 2.6 9.6 0.00 0.00 0.00 31 1014.2
20260507075004 47 165 3.5 9.6 0.00 0.00 0.00 33 1014.2
20260507074505 47 174 4.3 12.2 0.00 0.00 0.00 31 1014.2
20260507074004 47 176 3.5 12.2 0.00 0.00 0.00 32 1014.2
20260507073506 47 174 3.5 10.4 0.00 0.00 0.00 32 1014.2
20260507072004 47 186 2.6 7.8 0.00 0.00 0.00 33 1014.3
20260507071506 47 201 3.5 9.6 0.00 0.00 0.00 33 1014.3
20260507071004 47 202 1.7 9.6 0.00 0.00 0.00 34 1014.4
20260507070506 46 179 1.7 9.6 0.00 0.00 0.00 36 1014.4
20260507070009 46 187 3.5 7.8 0.00 0.00 0.00 35 1014.4
20260507065507 46 188 3.5 7.8 0.00 0.00 0.00 35 1014.5
20260507064506 46 157 2.6 7.8 0.00 0.00 0.00 36 1014.4
20260507064004 46 166 2.6 7.8 0.00 0.00 0.00 37 1014.4
20260507063504 45 163 2.6 7.8 0.00 0.00 0.00 39 1014.4
20260507063006 45 178 3.5 8.7 0.00 0.00 0.00 40 1014.4
20260507062504 44 188 2.6 8.7 0.00 0.00 0.00 42 1014.5
20260507062006 44 183 3.5 8.7 0.00 0.00 0.00 44 1014.4
20260507061006 43 178 1.7 7.0 0.00 0.00 0.00 45 1014.3
20260507060006 43 165 2.6 8.7 0.00 0.00 0.00 47 1014.1
20260507055006 42 170 2.6 5.2 0.00 0.00 0.00 47 1014.2
20260507054006 41 173 1.7 7.0 0.00 0.00 0.00 50 1014.2
20260507053504 41 176 2.6 7.0 0.00 0.00 0.00 51 1014.2
20260507053006 40 171 2.6 7.0 0.00 0.00 0.00 51 1014.2
20260507052504 40 171 2.6 7.0 0.00 0.00 0.00 52 1014.1
20260507052006 40 177 1.7 6.1 0.00 0.00 0.00 55 1014.1
20260507051504 39 172 2.6 4.3 0.00 0.00 0.00 57 1014.0
20260507051008 38 179 2.6 5.2 0.00 0.00 0.00 58 1014.1
20260507050504 38 183 2.6 5.2 0.00 0.00 0.00 60 1014.0
20260507050006 37 169 1.7 5.2 0.00 0.00 0.00 63 1014.2
20260507045505 36 165 1.7 5.2 0.00 0.00 0.00 65 1014.2
20260507045006 35 166 2.6 5.2 0.00 0.00 0.00 65 1014.2
20260507044504 35 170 1.7 5.2 0.00 0.00 0.00 68 1014.2
20260507044006 34 179 1.7 5.2 0.00 0.00 0.00 70 1014.3
20260507043504 33 183 1.7 4.3 0.00 0.00 0.00 72 1014.2
20260507043004 32 175 1.7 4.3 0.00 0.00 0.00 73 1014.2
20260507042506 32 168 0.9 4.3 0.00 0.00 0.00 75 1014.1
20260507042004 31 168 0.9 3.5 0.00 0.00 0.00 76 1014.1
20260507041006 30 165 0.0 0.9 0.00 0.00 0.00 79 1014.1
20260507040504 29 170 0.0 3.5 0.00 0.00 0.00 80 1014.1
20260507040006 29 172 0.0 3.5 0.00 0.00 0.00 81 1014.1
20260507035504 28 169 0.0 1.7 0.00 0.00 0.00 82 1014.1
20260507034506 28 169 0.0 1.7 0.00 0.00 0.00 83 1014.2
20260507033004 27 179 0.0 1.7 0.00 0.00 0.00 84 1014.3
20260507032506 27 181 0.0 1.7 0.00 0.00 0.00 84 1014.2
20260507032004 26 194 0.9 2.6 0.00 0.00 0.00 85 1014.3
20260507031506 26 204 0.0 2.6 0.00 0.00 0.00 85 1014.2
20260507030506 26 221 0.0 1.7 0.00 0.00 0.00 86 1014.2
20260507030004 26 225 0.0 1.7 0.00 0.00 0.00 86 1014.2
20260507025506 25 243 0.0 1.7 0.00 0.00 0.00 87 1014.1
20260507025004 25 243 0.0 0.9 0.00 0.00 0.00 87 1014.1
20260507024506 25 243 0.0 0.9 0.00 0.00 0.00 87 1014.1
20260507024005 24 243 0.0 1.7 0.00 0.00 0.00 87 1014.1
20260507023508 24 243 0.0 1.7 0.00 0.00 0.00 87 1014.1
20260507023004 24 243 0.0 0.9 0.00 0.00 0.00 87 1014.1
20260507022506 24 243 0.0 1.7 0.00 0.00 0.00 87 1014.1
20260507022004 24 257 0.0 1.7 0.00 0.00 0.00 87 1014.1
20260507021506 24 269 0.0 0.9 0.00 0.00 0.00 87 1014.1
20260507021004 24 0 0.0 0.0 0.00 0.00 0.00 86 1014.0
20260507020005 24 269 0.0 0.9 0.00 0.00 0.00 86 1014.1
20260507015506 24 270 0.0 0.9 0.00 0.00 0.00 86 1014.1
20260507015004 24 0 0.0 0.0 0.00 0.00 0.00 85 1014.0
20260507014506 24 0 0.0 0.0 0.00 0.00 0.00 85 1014.0
20260507014004 24 0 0.0 0.0 0.00 0.00 0.00 85 1014.0
20260507013506 25 0 0.0 0.0 0.00 0.00 0.00 85 1014.0
20260507013005 25 0 0.0 0.0 0.00 0.00 0.00 85 1014.0
20260507012506 25 0 0.0 0.0 0.00 0.00 0.00 85 1014.0
20260507012004 25 0 0.0 0.0 0.00 0.00 0.00 85 1014.0
20260507011004 25 0 0.0 0.0 0.00 0.00 0.00 86 1014.0
20260507010505 25 0 0.0 0.0 0.00 0.00 0.00 85 1014.0
20260507010005 25 0 0.0 0.0 0.00 0.00 0.00 86 1014.0
20260507005506 25 0 0.0 0.0 0.00 0.00 0.00 86 1014.0
20260507005005 25 0 0.0 0.0 0.00 0.00 0.00 86 1014.0
20260507004006 25 0 0.0 0.0 0.00 0.00 0.00 86 1013.9
20260507003504 25 0 0.0 0.0 0.00 0.00 0.00 85 1013.9
20260507003006 25 0 0.0 0.0 0.00 0.00 0.00 85 1013.9
20260507002504 25 0 0.0 0.0 0.00 0.00 0.00 85 1013.8
20260507002006 25 0 0.0 0.0 0.00 0.00 0.00 84 1013.8
20260507001504 25 0 0.0 0.0 0.00 0.00 0.00 84 1013.8
20260507001005 25 0 0.0 0.0 0.00 0.00 0.00 83 1013.8
20260507000006 25 0 0.0 0.0 0.00 0.00 0.00 83 1013.8
20260506235504 26 0 0.0 0.0 0.00 0.00 0.00 83 1013.9
20260506235006 26 0 0.0 0.0 0.00 0.00 0.00 83 1013.9
20260506234006 26 0 0.0 0.0 0.00 0.00 0.00 82 1013.8
20260506233504 26 0 0.0 0.0 0.00 0.00 0.00 82 1013.8
20260506233004 26 0 0.0 0.0 0.00 0.00 0.00 83 1013.7
20260506232506 26 0 0.0 0.0 0.00 0.00 0.00 82 1013.7
20260506232006 27 0 0.0 0.0 0.00 0.00 0.00 82 1013.7
20260506231504 27 0 0.0 0.0 0.00 0.00 0.00 82 1013.7
20260506231004 27 0 0.0 0.0 0.00 0.00 0.00 82 1013.7
20260506230506 27 0 0.0 0.0 0.00 0.00 0.00 82 1013.7
20260506224505 28 0 0.0 0.0 0.00 0.00 0.00 80 1013.6
20260506224006 28 0 0.0 0.0 0.00 0.00 0.00 80 1013.6
20260506223504 28 0 0.0 0.0 0.00 0.00 0.00 80 1013.5
20260506222504 28 0 0.0 0.0 0.00 0.00 0.00 80 1013.4
20260506222006 28 0 0.0 0.0 0.00 0.00 0.00 79 1013.4
20260506221505 29 0 0.0 0.0 0.00 0.00 0.00 79 1013.4
20260506221005 29 0 0.0 0.0 0.00 0.00 0.00 78 1013.3
20260506220505 29 0 0.0 0.0 0.00 0.00 0.00 78 1013.2
20260506220004 29 0 0.0 0.0 0.00 0.00 0.00 78 1013.2
20260506215506 29 0 0.0 0.0 0.00 0.00 0.00 78 1013.3
20260506215004 29 0 0.0 0.0 0.00 0.00 0.00 78 1013.2
20260506214505 29 0 0.0 0.0 0.00 0.00 0.00 77 1013.3
20260506214004 30 0 0.0 0.0 0.00 0.00 0.00 77 1013.2
20260506213504 30 0 0.0 0.0 0.00 0.00 0.00 77 1013.1
20260506213004 30 0 0.0 0.0 0.00 0.00 0.00 76 1013.1
20260506212503 31 0 0.0 0.0 0.00 0.00 0.00 76 1013.0
20260506212005 31 0 0.0 0.0 0.00 0.00 0.00 76 1012.9
20260506211005 31 0 0.0 0.0 0.00 0.00 0.00 74 1012.9
20260506210504 32 0 0.0 0.0 0.00 0.00 0.00 74 1012.9
20260506210006 32 0 0.0 0.0 0.00 0.00 0.00 74 1012.8
20260506205504 32 0 0.0 0.0 0.00 0.00 0.00 73 1012.8
20260506205005 33 270 0.0 0.9 0.00 0.00 0.00 72 1012.8
20260506204503 33 270 0.0 0.9 0.00 0.00 0.00 72 1012.9
20260506204005 33 0 0.0 0.0 0.00 0.00 0.00 71 1012.9
20260506203503 34 0 0.0 0.0 0.00 0.00 0.00 70 1012.8
20260506203005 34 0 0.0 0.0 0.00 0.00 0.00 70 1012.8
20260506202503 34 0 0.0 0.0 0.00 0.00 0.00 69 1012.7
20260506202005 35 0 0.0 0.0 0.00 0.00 0.00 68 1012.7
20260506201503 35 0 0.0 0.0 0.00 0.00 0.00 67 1012.7
20260506201005 36 0 0.0 0.0 0.00 0.00 0.00 66 1012.6
20260506200504 36 0 0.0 0.0 0.00 0.00 0.00 65 1012.6
20260506200005 37 0 0.0 0.0 0.00 0.00 0.00 64 1012.5
20260506195503 37 0 0.0 0.0 0.00 0.00 0.00 63 1012.4
20260506195003 38 0 0.0 0.0 0.00 0.00 0.00 62 1012.4
20260506194003 39 270 0.0 0.9 0.00 0.00 0.00 60 1012.3
20260506193505 39 270 0.0 0.9 0.00 0.00 0.00 59 1012.3
20260506193004 40 265 0.0 0.9 0.00 0.00 0.00 59 1012.3
20260506192505 40 263 0.9 5.2 0.00 0.00 0.00 58 1012.3
20260506192005 40 249 1.7 5.2 0.00 0.00 0.00 57 1012.3
20260506191005 41 241 1.7 5.2 0.00 0.00 0.00 56 1012.4
20260506190504 41 243 1.7 5.2 0.00 0.00 0.00 55 1012.3
20260506190006 41 255 2.6 7.0 0.00 0.00 0.00 55 1012.2
20260506185504 42 255 2.6 7.0 0.00 0.00 0.00 55 1012.1
20260506185005 42 247 2.6 7.0 0.00 0.00 0.00 55 1012.2
20260506184504 42 241 2.6 7.0 0.00 0.00 0.00 55 1012.2
20260506184005 42 241 2.6 8.7 0.00 0.00 0.00 55 1012.2
20260506183503 43 242 2.6 8.7 0.00 0.00 0.00 55 1012.2
20260506183005 43 231 2.6 7.8 0.00 0.00 0.00 55 1012.2
20260506182504 43 238 2.6 7.8 0.00 0.00 0.00 55 1012.1
20260506182005 43 242 2.6 7.8 0.00 0.00 0.00 55 1012.0
20260506181503 44 240 2.6 7.0 0.00 0.00 0.00 54 1011.9
20260506181005 44 258 3.5 7.0 0.00 0.00 0.00 53 1011.8
20260506180504 44 269 2.6 7.0 0.00 0.00 0.00 53 1011.7
20260506175503 44 254 2.6 7.8 0.00 0.00 0.00 52 1011.7
20260506175005 45 251 3.5 10.4 0.00 0.00 0.00 52 1011.7
20260506174504 45 251 3.5 10.4 0.00 0.00 0.00 52 1011.7
20260506174005 45 258 2.6 9.6 0.00 0.00 0.00 51 1011.6
20260506173505 45 258 3.5 7.8 0.00 0.00 0.00 50 1011.5
20260506173004 46 250 3.5 7.8 0.00 0.00 0.00 50 1011.5
20260506172004 46 227 4.3 9.6 0.00 0.00 0.00 49 1011.4
20260506171505 46 222 3.5 9.6 0.00 0.00 0.00 49 1011.4
20260506170505 47 240 3.5 8.7 0.00 0.00 0.00 48 1011.2
20260506165505 47 228 3.5 7.8 0.00 0.00 0.00 46 1011.1
20260506164504 47 243 3.5 8.7 0.00 0.00 0.00 46 1011.2
20260506164004 47 256 4.3 8.7 0.00 0.00 0.00 46 1011.2
20260506163505 47 258 4.3 8.7 0.00 0.00 0.00 45 1011.1
20260506163004 47 245 4.3 9.6 0.00 0.00 0.00 45 1011.1
20260506162505 47 232 4.3 9.6 0.00 0.00 0.00 46 1011.1
20260506162004 47 228 3.5 9.6 0.00 0.00 0.00 46 1011.1
20260506161505 47 247 2.6 7.8 0.00 0.00 0.00 47 1011.0
20260506160004 47 267 4.3 8.7 0.00 0.00 0.00 47 1011.0
20260506155005 47 234 3.5 8.7 0.00 0.00 0.00 46 1010.9
20260506154005 47 259 6.1 11.3 0.00 0.00 0.00 46 1010.9
20260506153503 48 253 4.3 11.3 0.00 0.00 0.00 45 1010.9
20260506153005 47 234 1.7 7.0 0.00 0.00 0.00 49 1010.8
20260506152504 46 240 3.5 8.7 0.00 0.00 0.00 50 1010.8
20260506152005 46 247 3.5 10.4 0.00 0.00 0.00 50 1010.9
20260506151504 46 245 3.5 10.4 0.00 0.00 0.00 48 1010.8
20260506151005 47 241 3.5 9.6 0.00 0.00 0.00 48 1010.8
20260506150504 47 245 5.2 12.2 0.00 0.00 0.00 47 1010.9
20260506150005 47 258 3.5 12.2 0.00 0.00 0.00 48 1010.9
20260506145504 47 270 1.7 12.2 0.00 0.00 0.00 49 1010.9
20260506145005 46 247 2.6 7.8 0.00 0.00 0.00 50 1010.9
20260506144504 46 247 3.5 7.8 0.00 0.00 0.00 50 1010.9
20260506144005 46 251 5.2 10.4 0.00 0.00 0.00 50 1010.8
20260506143005 47 257 6.1 11.3 0.00 0.00 0.00 48 1010.8
20260506142504 47 257 5.2 9.6 0.00 0.00 0.00 49 1010.8
20260506142005 47 250 4.3 9.6 0.00 0.00 0.00 49 1010.8
20260506141504 46 241 5.2 15.6 0.00 0.00 0.00 52 1010.8
20260506141007 46 247 5.2 15.6 0.00 0.00 0.00 51 1010.8
20260506135504 46 257 4.3 11.3 0.00 0.00 0.00 50 1010.8
20260506135005 46 252 5.2 12.2 0.00 0.00 0.00 52 1010.8
20260506134005 46 258 4.3 10.4 0.00 0.00 0.00 52 1010.9
20260506133504 46 252 6.1 10.4 0.00 0.00 0.00 51 1010.8
20260506133005 45 253 5.2 9.6 0.00 0.00 0.00 51 1010.9
20260506132504 45 245 6.1 13.9 0.00 0.00 0.00 52 1010.7
20260506132005 45 234 7.0 13.9 0.00 0.00 0.00 52 1010.8
20260506131504 45 241 6.1 17.4 0.00 0.00 0.00 51 1010.6
20260506131005 45 252 5.2 17.4 0.00 0.00 0.00 52 1010.6
20260506130504 45 250 5.2 12.2 0.00 0.00 0.00 52 1010.6
20260506130006 45 249 6.1 11.3 0.00 0.00 0.00 52 1010.5
20260506125504 45 254 6.1 13.0 0.00 0.00 0.00 52 1010.5
20260506125005 45 265 5.2 14.8 0.00 0.00 0.00 52 1010.5
20260506124504 45 257 5.2 15.6 0.00 0.00 0.00 52 1010.4
20260506124005 45 258 6.1 15.6 0.00 0.00 0.00 52 1010.4
20260506123504 45 270 6.1 13.9 0.00 0.00 0.00 52 1010.4
20260506123005 45 268 4.3 13.9 0.00 0.00 0.00 52 1010.5
20260506122504 45 275 3.5 12.2 0.00 0.00 0.00 52 1010.4
20260506122006 45 268 5.2 13.9 0.00 0.00 0.00 52 1010.3
20260506121505 45 265 7.0 14.8 0.00 0.00 0.00 51 1010.3
20260506121004 45 263 7.0 14.8 0.00 0.00 0.00 50 1010.2
20260506120505 46 261 6.1 14.8 0.00 0.00 0.00 48 1010.2
20260506120004 47 261 4.3 12.2 0.00 0.00 0.00 46 1010.1
20260506114505 47 266 7.0 13.9 0.00 0.00 0.00 44 1010.0
20260506114004 47 259 7.8 15.6 0.00 0.00 0.00 43 1010.0
20260506113505 48 251 7.0 15.6 0.00 0.00 0.00 43 1010.0
20260506113004 47 260 5.2 13.9 0.00 0.00 0.00 41 1009.8
20260506112505 48 271 5.2 12.2 0.00 0.00 0.00 39 1009.7
20260506112004 48 267 5.2 12.2 0.00 0.00 0.00 40 1009.6
20260506111505 47 270 5.2 13.0 0.00 0.00 0.00 40 1009.7
20260506111004 47 251 6.1 16.5 0.00 0.00 0.00 40 1009.6
20260506110505 47 243 8.7 16.5 0.00 0.00 0.00 40 1009.5
20260506110004 47 258 7.8 14.8 0.00 0.00 0.00 40 1009.6
20260506105505 47 262 7.0 13.9 0.00 0.00 0.00 39 1009.5
20260506105004 47 262 7.8 15.6 0.00 0.00 0.00 41 1009.3
20260506104505 47 268 5.2 15.6 0.00 0.00 0.00 41 1009.3
20260506104004 48 261 5.2 13.0 0.00 0.00 0.00 42 1009.3
20260506103506 47 258 6.1 13.0 0.00 0.00 0.00 42 1009.2
20260506103004 47 248 7.0 18.2 0.00 0.00 0.00 43 1009.2
20260506102505 47 253 7.8 18.2 0.00 0.00 0.00 43 1009.3
20260506102004 47 265 6.1 17.4 0.00 0.00 0.00 42 1009.2
20260506101503 47 257 7.0 13.9 0.00 0.00 0.00 43 1009.0
20260506100504 48 259 5.2 15.6 0.00 0.00 0.00 41 1009.2
20260506100005 48 248 4.3 10.4 0.00 0.00 0.00 41 1009.0
20260506095503 47 258 5.2 12.2 0.00 0.00 0.00 42 1008.9
20260506095003 47 268 5.2 13.0 0.00 0.00 0.00 42 1008.8
20260506094505 47 267 4.3 13.9 0.00 0.00 0.00 44 1008.8
20260506094004 47 267 5.2 13.9 0.00 0.00 0.00 44 1008.8
20260506093005 46 250 7.0 15.6 0.00 0.00 0.00 44 1008.6
20260506092504 46 264 6.1 15.6 0.00 0.00 0.00 45 1008.6
20260506092005 46 263 6.1 15.6 0.00 0.00 0.00 44 1008.6
20260506091504 46 248 6.1 15.6 0.00 0.00 0.00 44 1008.4
20260506091005 46 240 7.0 14.8 0.00 0.00 0.00 44 1008.5
20260506090504 46 252 6.1 15.6 0.00 0.00 0.00 46 1008.5